Regional Weather Roundup
Issued by NWS

Home | Current Version | Previous Version | Graphics & Text | Print | Product List | Glossary Off
Versions: 1 2 3 4 5 6 7 8 9 10 11 12 13 14 15 16 17 18 19 20 21 22 23 24 25 26 27 28 29 30 31 32 33 34 35 36 37 38 39 40 41 42 43 44 45 46 47 48 49 50

000
ASUS43 KLOT 032208
RWRIL

ILLINOIS REGIONAL WEATHER ROUNDUP
NATIONAL WEATHER SERVICE CHICAGO/ROMEOVILLE IL
500 PM CDT TUE MAY 03 2016

NOTE: "FAIR" INDICATES FEW OR NO CLOUDS BELOW 12,000 FEET WITH NO
SIGNIFICANT WEATHER AND/OR OBSTRUCTIONS TO VISIBILITY.

* THESE STATIONS ARE NOT UNDER NWS QUALITY CONTROL. THEY ALSO MAY NOT
  REPORT WEATHER SUCH AS PRECIPITATION OR FOG.

ILZ001-002-007-009-015-016-024-032300-
NORTHWEST ILLINOIS

CITY           SKY/WX    TMP DP  RH WIND       PRES   REMARKS
MOLINE         MOSUNNY   66  39  37 W15G24    29.85F
STERLING*      PTSUNNY   64  41  42 W20       29.83F
SAVANNA*       CLOUDY    67  40  37 W12G18    29.83S
$$

ILZ003-004-008-010-011-017-018-032300-
NORTH CENTRAL ILLINOIS

CITY           SKY/WX    TMP DP  RH WIND       PRES   REMARKS
ROCKFORD       CLOUDY    66  39  37 W17G23    29.82F
FREEPORT*      CLOUDY    64  39  40 W15G21    29.83S
ROCHELLE*      CLOUDY    64  42  45 W18       29.83F
DE KALB*       CLOUDY    66  41  40 W18       29.83S
$$

ILZ005-006-012>014-019>023-032300-
NORTHEAST ILLINOIS

CITY           SKY/WX    TMP DP  RH WIND       PRES   REMARKS
CHICAGO-OHARE  PTSUNNY   65  38  36 W16G22    29.80F
CHICAGO-MIDWAY PTSUNNY   66  36  32 W15       29.82F
AURORA         PTSUNNY   65  40  39 W15G25    29.83F
LANSING*       PTSUNNY   64  39  39 W12       29.83F
JOLIET*        MOSUNNY   67  40  36 W7        29.83F
WAUKEGAN       CLOUDY    66  37  34 VRB7G18   29.78F
DUPAGE AIRPORT MOSUNNY   65  38  36 W16G23    29.81F
KANKAKEE*      CLOUDY   N/A N/A N/A W9        29.85F
WHEELING       PTSUNNY   65  37  35 W13       29.81F
MORRIS*        CLOUDY    65  40  40 W16       29.82F
ROMEOVILLE*    PTSUNNY   64  35  34 W9        29.82F
NORTHERLY ISL    N/A     65  34  31 W13         N/A
NORTHERLY ISL    N/A     65  34  31 W13         N/A
$$

LMZ740>746-032300-
SOUTHERN LAKE MICHIGAN

STATION/POSITION SKY/WX   TEMP    WIND        PRES    VSBY  WAVE
                          AIR SEA DIR/SP/G                  HT/PER
                          (F)     (DEG/KT/KT) (MB)    (MI)  (FT/S)
SOUTHERN BUOY              46 42  170/ 12/ 14 1008.5F         1/ 3
HARRISON CRIB              57     170/  8/  9   N/A
BURNHAM HARBOR             65     260/ 10/ 15   N/A
CALUMET HARBOR             66     220/  8/ 15 1009.5F
BURNS HARBOR               64        CALM     1011.2F
MICHIGAN CITY              62     240/  1/  1   N/A
ST. JOSEPH                 53 51                N/A           0
$$

ILZ025>027-034>036-040-047-049-050-058-095>099-032300-
WEST-CENTRAL ILLINOIS

CITY           SKY/WX    TMP DP  RH WIND       PRES   REMARKS
QUINCY         MOSUNNY   66  38  35 VRB7      29.92F
GALESBURG*     MOSUNNY   66  39  37 W15       29.88F
MACOMB*        MOSUNNY   65  38  37 W14       29.92F
JACKSONVILLE*  SUNNY     66  40  38 W12       29.92F
PITTSFIELD*    MOSUNNY   65  38  36 W7        29.93F
$$

ILZ028>032-037-038-041>044-048-051>054-059>061-032300-
CENTRAL ILLINOIS

CITY           SKY/WX    TMP DP  RH WIND       PRES   REMARKS
PONTIAC        PTSUNNY   67  40  38 W15       29.87F
BLOOMINGTON    MOSUNNY   64  40  41 W12       29.89F
DECATUR        CLOUDY    63  42  46 W3        29.91F
PEORIA         PTSUNNY   68  37  32 W14G20    29.88F
LACON*         PTSUNNY   65  35  32 W8        29.86F
LINCOLN*       CLOUDY    68  38  33 W8        29.89S
SPRINGFIELD    PTSUNNY   64  43  46 SW8       29.92S
TAYLORVILLE    CLOUDY    64  45  48 W12G17    29.92S
$$

ILZ033-039-045-046-055>057-062-063-032300-
EAST-CENTRAL ILLINOIS

CITY           SKY/WX    TMP DP  RH WIND       PRES   REMARKS
CHAMPAIGN      CLOUDY    64  41  42 W10       29.89F
RANTOUL*       CLOUDY    64  44  47 W6        29.88S
MATTOON        PTSUNNY   65  42  43 W9        29.89F
PARIS*         PTSUNNY   63  44  50 W3        29.90S
$$

ILZ079-100>102-032300-
SOUTHWEST ILLINOIS

CITY           SKY/WX    TMP DP  RH WIND       PRES   REMARKS
ALTON          CLOUDY    59  43  55 W8        29.96F
BELLEVILLE     CLOUDY    63  40  42 NW8       29.94F
CAHOKIA*       CLOUDY    62  38  40 NW10      29.96F
SPARTA*        CLOUDY    61  43  51 NW3       29.97F
$$

ILZ064>066-069>071-074>076-080>082-084>086-088>090-092>094-032300-
SOUTH-CENTRAL ILLINOIS

CITY           SKY/WX    TMP DP  RH WIND       PRES   REMARKS
CARBONDALE     CLOUDY    63  43  48 N7        29.95F
CAIRO*         CLOUDY    62  46  54 CALM      29.96S
EFFINGHAM*     MOSUNNY   64  44  49 W8        29.93F
MARION         PTSUNNY   64  43  45 NW9       29.96F
MT. VERNON     CLOUDY    61  43  51 W5        29.96S
CENTRALIA*     CLOUDY    61  46  58 W8        29.95S
SALEM*         CLOUDY    62  45  54 W9        29.94F
METROPOLIS*    CLOUDY    63  47  56 NW6       29.96S
$$

ILZ067-068-072-073-078-083-087-091-032300-
SOUTHEAST ILLINOIS

CITY           SKY/WX    TMP DP  RH WIND       PRES   REMARKS
LAWRENCEVILLE  CLOUDY    63  42  46 W6        29.92F
FLORA*         CLOUDY    64  41  43 W7        29.93F
FAIRFIELD*     CLOUDY    62  43  50 W5        29.93F
HARRISBURG*    CLOUDY    63  44  48 NW5       29.95S
ROBINSON*      MOSUNNY   63  43  48 CALM      29.91F
CARMI*         CLOUDY    62  45  53 NW9       29.94S
$$

ABBREVIATIONS USED IN REMARKS
   TC - TEMPERATURE IN CELSIUS
  WCI - WIND CHILL INDEX
   HX - HEAT INDEX
  VSB - VISIBILITY
$$




USA.gov is the U.S. government's official web portal to all federal, state and local government web resources and services.